Weather History for McCall, ID

Change the Weather History Date:

Saturday, August 16, 2014

  Actual Average Record
Temperature  
Mean Temperature 63 °F 60 °F  
Max Temperature 77 °F 78 °F 95 °F (1994)
Min Temperature 48 °F 42 °F 29 °F (1989)
Degree Days  
Heating Degree Days 2 5  
Month to date heating degree days 14 70  
Since 1 June heating degree days 346 587  
Since 1 July heating degree days 32 220  
Cooling Degree Days 0 0  
Month to date cooling degree days 50 7  
Year to date cooling degree days 181 23  
Since 1 June cooling degree days 181 23  
Growing Degree Days 12 (Base 50)    
Moisture  
Dew Point 46 °F    
Average Humidity 60    
Maximum Humidity 93    
Minimum Humidity 27    
Precipitation  
Precipitation 0.00 in 0.02 in 1.38 in (1995)
Month to date precipitation 0.99 0.31  
Year to date precipitation 16.41 12.67  
Sea Level Pressure  
Sea Level Pressure 30.07 in    
Wind  
Wind Speed 3 mph (SSW)    
Max Wind Speed 15 mph    
Max Gust Speed 19 mph    
Visibility 10 miles    
Events      
T = Trace of Precipitation, MM = Missing Value Source: NWS Daily Summary

Daily Weather History Graph

Daily Weather History Graph

Search for Another Location

Airport:

Trip Planner

Search our weather history database for the weather conditions in past years. The results will help you decide how hot, cold, wet, or windy it might be!

Date:

Astronomy

Aug. 16, 2014 Rise Set
Actual Time 6:47 AM MDT 8:48 PM MDT
Civil Twilight 6:15 AM MDT 9:20 PM MDT
Nautical Twilight 5:36 AM MDT 9:59 PM MDT
Astronomical Twilight 4:53 AM MDT 10:42 PM MDT
Moon No Moon Rise 1:57 PM MDT
Length of Visible Light 15h 04m
Length of Day
14h 01m
Waning Gibbous, 58% of the Moon is Illuminated
Aug 16
Waning Gibbous
Aug 17
Last Quarter
Aug 25
New
Sep 2
First Quarter
Sep 8
Full

Hourly Weather History & Observations

Time (MDT) Temp. Dew Point Humidity Pressure Visibility Wind Dir Wind Speed Gust Speed Precip Events Conditions
12:51 AM 57.9 °F 50.0 °F 75% 30.05 in 10.0 mi NW 4.6 mph - N/A   Mostly Cloudy
2:51 AM 53.1 °F 50.0 °F 89% 30.05 in 10.0 mi Calm Calm - N/A   Clear
3:51 AM 51.1 °F 48.0 °F 89% 30.06 in 10.0 mi Calm Calm - N/A   Clear
4:51 AM 51.1 °F 48.0 °F 89% 30.06 in 10.0 mi Calm Calm - N/A   Mostly Cloudy
5:51 AM 48.9 °F 46.0 °F 90% 30.08 in 10.0 mi Calm Calm - N/A   Mostly Cloudy
6:51 AM 48.9 °F 46.0 °F 90% 30.09 in 10.0 mi Calm Calm - N/A   Clear
7:51 AM 51.1 °F 46.9 °F 86% 30.11 in 10.0 mi Calm Calm - N/A   Clear
9:51 AM 59.0 °F 50.0 °F 72% 30.11 in 10.0 mi Calm Calm - N/A   Clear
10:51 AM 63.0 °F 50.0 °F 63% 30.10 in 10.0 mi Calm Calm - N/A   Clear
11:51 AM 68.0 °F 46.0 °F 45% 30.09 in 10.0 mi SE 6.9 mph - N/A   Clear
12:51 PM 70.0 °F 46.9 °F 44% 30.08 in 10.0 mi SW 6.9 mph - N/A   Partly Cloudy
1:51 PM 72.0 °F 42.1 °F 34% 30.08 in 10.0 mi SSE 6.9 mph - N/A   Mostly Cloudy
2:51 PM 73.0 °F 39.9 °F 30% 30.08 in 10.0 mi WSW 5.8 mph - N/A   Clear
3:51 PM 75.0 °F 41.0 °F 29% 30.07 in 10.0 mi WSW 10.4 mph - N/A   Scattered Clouds
4:51 PM 73.9 °F 41.0 °F 30% 30.05 in 10.0 mi Variable 4.6 mph - N/A   Clear
6:51 PM 75.9 °F 39.9 °F 27% 30.04 in 10.0 mi SW 6.9 mph - N/A   Scattered Clouds
7:51 PM 73.9 °F 41.0 °F 30% 30.03 in 10.0 mi Variable 3.5 mph - N/A   Clear
8:51 PM 70.0 °F 45.0 °F 41% 30.03 in 10.0 mi SE 3.5 mph - N/A   Clear
9:51 PM 62.1 °F 45.0 °F 53% 30.06 in 10.0 mi Calm Calm - N/A   Clear
10:51 PM 62.1 °F 48.0 °F 60% 30.05 in 10.0 mi North 5.8 mph - N/A   Clear
11:51 PM 61.0 °F 48.0 °F 62% 30.04 in 10.0 mi Calm Calm - N/A   Clear